Regional Weather Roundup
Issued by NWS

Home | Current Version | Previous Version | Graphics & Text | Print | Product List | Glossary On
Versions: 1 2 3 4 5 6 7 8 9 10 11 12 13 14 15 16 17 18 19 20 21 22 23 24 25 26 27 28 29 30 31 32 33 34 35 36 37 38 39 40 41 42 43 44 45 46 47 48 49 50
907
ASUS45 KABQ 241601
RWRNM
NEW MEXICO REGIONAL WEATHER ROUNDUP
NATIONAL WEATHER SERVICE ALBUQUERQUE NM
1000 AM MDT MON APR 24 2017

NOTE: "FAIR" MEANS FEW OR NO CLOUDS BELOW 12,000 FEET AGL WITH NO
       SIGNIFICANT WEATHER OR OBSTRUCTIONS TO VISION.

      THIS PRODUCT IS RELEASED AS TWO VERSIONS.  ONE VERSION NEAR
      THE TOP OF THE HOUR CONTAINING PRELIMINARY DATA FROM ALBUQUERQUE
      AND OTHER STATIONS.  A FINAL VERSION WITH ADDITIONAL DATA IS
      ISSUED ABOUT 10 MINUTES AFTER THE HOUR.

NMZ501-503-504-510>518-241700-
NORTHWEST PLATEAU/NORTHCENTRAL MOUNTAINS

CITY           SKY/WX    TMP DP  RH WIND       PRES   REMARKS
FARMINGTON     FAIR      61  23  23 CALM      29.84F
LOS ALAMOS     FAIR      60  18  19 SW14      29.95S
SANTA FE       FAIR      65  26  23 W12G21    29.92S
TAOS             N/A     61  21  21 W18       29.92F
ANGEL FIRE     FAIR      54  19  26 W26G37    29.94F

$$
NMZ402-403-502-505>509-241700-
WESTCENTRAL MOUNTAINS/SOUTHWEST MOUNTAINS

CITY           SKY/WX    TMP DP  RH WIND       PRES   REMARKS
GALLUP         FAIR      62  26  25 SW20G30   29.94F
GRANTS         FAIR      65  21  19 SW15G24   29.97F
SILVER CITY    FAIR      69  20  15 W9G17     30.00S

$$
NMZ407-409-411-412-241700-
SOUTHERN DESERTS

CITY           SKY/WX    TMP DP  RH WIND       PRES   REMARKS
DEMING         FAIR      75  22  13 W13       29.95F
LAS CRUCES     FAIR      75  21  13 W16G24    29.95S
HOLLOMAN AFB   FAIR      78  24  13 SW18      29.93S
ALAMOGORDO     FAIR      75  28  17 W9        29.92S
T OR C         FAIR      71  28  20 VRB5      29.91F

$$
NMZ519>523-241700-
CENTRAL VALLEYS/CENTRAL HIGHLANDS

CITY           SKY/WX    TMP DP  RH WIND       PRES   REMARKS
ALBUQUERQUE    FAIR      67  26  21 SW15      29.91S
DOUBLE EAGLE   MOSUNNY   64  27  24 SW20G25   29.93F
MORIARTY ARPT  FAIR      69  20  15 W21G26    29.94R
CLINES CORNERS FAIR      64  20  18 W32G41    29.93F
BELEN          FAIR      69  25  19 SW7       29.92R
SOCORRO        FAIR      69  33  26 SE9       29.90F

$$
NMZ524>526-539-540-241700-
SOUTHCENTRAL MOUNTAINS

CITY           SKY/WX    TMP DP  RH WIND       PRES   REMARKS
RUIDOSO        NOT AVBL

$$
NMZ527>531-241700-
NORTHEAST HIGHLANDS/NORTHEAST PLAINS

CITY           SKY/WX    TMP DP  RH WIND       PRES   REMARKS
LAS VEGAS      FAIR      65  13  13 W33G47    29.87S
RATON          FAIR      69  17  13 W21       29.77F
CLAYTON        FAIR      73  28  18 SW15G24   29.74F

$$
NMZ532>537-241700-
EASTCENTRAL PLAINS

CITY           SKY/WX    TMP DP  RH WIND       PRES   REMARKS
SANTA ROSA     FAIR      75  27  17 W22G28    29.80F
TUCUMCARI      FAIR      78  33  19 W22       29.73F
CANNON AFB     FAIR      69  36  29 SW18      29.80F
CLOVIS AIRPORT FAIR      70  39  32 SW21      29.81F

$$
NMZ028-029-538-241700-
SOUTHEAST PLAINS

CITY           SKY/WX    TMP DP  RH WIND       PRES   REMARKS
ROSWELL        FAIR      73  37  27 SW15      29.84F
ARTESIA        FAIR      77  41  27 S10       29.83F
CARLSBAD       FAIR      67  37  33 VRB3      29.84F
HOBBS          SUNNY     68  39  34 S13       29.86F


$$




USA.gov is the U.S. government's official web portal to all federal, state and local government web resources and services.